Regional Weather Roundup
Issued by NWS Little Rock, AR

Home | Current Version | Previous Version | Graphics & Text | Print | Product List | Glossary Off
Versions: 1 2 3 4 5 6 7 8 9 10 11 12 13 14 15 16 17 18 19 20 21 22 23 24 25 26 27

000
ASUS44 KLZK 180505
RWRLZK

WEATHER ROUNDUP FOR ARKANSAS
NATIONAL WEATHER SERVICE LITTLE ROCK AR
1200 AM CDT FRI APR 18 2014

NOTE: "FAIR" INDICATES FEW OR NO CLOUDS BELOW 12,000 FEET WITH NO
SIGNIFICANT WEATHER AND/OR OBSTRUCTIONS TO VISIBILITY.

ARZ001-003-010-029-180600-
NORTHWEST ARKANSAS

CITY           SKY/WX    TMP DP  RH WIND       PRES   REMARKS
FAYETTEVILLE   CLOUDY    51  45  79 CALM      30.24R
FORT SMITH       N/A     58  43  57 NE6       30.20F
HARRISON       PTCLDY    53  39  59 CALM      30.22R
BENTONVILLE    CLOUDY    52  39  62 N7        30.26R
ROGERS         MOCLDY    51  41  68 N5        30.26R
SILOAM SPGS    CLOUDY    52  39  62 NE5       30.25S
HIGHFILL       CLOUDY    50  42  74 N6        30.24R
$$

ARZ004-005-016-180600-
NORTH CENTRAL ARKANSAS

CITY           SKY/WX    TMP DP  RH WIND       PRES   REMARKS
BATESVILLE     MOCLDY    54  43  66 CALM      30.21F
FLIPPIN        CLOUDY    55  36  47 SE3       30.21F
MTN HOME       CLOUDY    56  38  50 SE6       30.20F
$$

ARZ040-041-180600-
WEST CENTRAL ARKANSAS

CITY           SKY/WX    TMP DP  RH WIND       PRES   REMARKS
MENA           MOCLDY    55  46  71 CALM      30.21S
MOUNT IDA      MOCLDY    53  47  79 CALM      30.19R
$$

ARZ009-017-025-026-028-180600-
NORTHEAST ARKANSAS

CITY           SKY/WX    TMP DP  RH WIND       PRES   REMARKS
CORNING        FAIR      54  46  76 SE5       30.24R
JONESBORO      MOCLDY    55  43  63 NE3       30.22S
NEWPORT        MOCLDY    55  50  83 NE6       30.23S
WALNUT RIDGE   PTCLDY    55  48  76 E3        30.22F
BLYTHEVILLE    CLEAR     54  47  77 CALM      30.22S
$$

ARZ022-023-033-042-044-180600-
CENTRAL ARKANSAS

CITY           SKY/WX    TMP DP  RH WIND       PRES   REMARKS
LITTLE ROCK    MOCLDY    55  47  74 CALM      30.22S
N LITTLE ROCK  MOCLDY    57  48  73 CALM      30.22S
JACKSONVILLE   PTCLDY    53  46  78 NE1       30.21F
SEARCY         CLEAR     52  48  86 CALM      30.23S
HOT SPRINGS    CLOUDY    59  45  59 E3        30.19F
RUSSELLVILLE   MOCLDY    55  47  74 CALM      30.19F
CLINTON        FAIR      54  48  82 CALM      30.23R
$$

ARZ036-180600-
EAST ARKANSAS

CITY           SKY/WX    TMP DP  RH WIND       PRES   REMARKS
WEST MEMPHIS   CLOUDY    57  49  74 CALM      30.20F
$$

ARZ050-053-066-070-073-180600-
SOUTHWEST ARKANSAS

CITY           SKY/WX    TMP DP  RH WIND       PRES   REMARKS
ARKADELPHIA    FAIR      54  53  96 CALM      30.21S
CAMDEN         CLOUDY    55  50  82 MISG      30.21S
TEXARKANA      CLOUDY    56  46  69 SE3       30.19S
EL DORADO      CLOUDY    56  50  80 CALM      30.20S
DE QUEEN       MOCLDY    54  52  93 CALM      30.19S
$$

ARZ056-057-069-180600-
SOUTHEAST ARKANSAS

CITY           SKY/WX    TMP DP  RH WIND       PRES   REMARKS
PINE BLUFF     PTCLDY    54  48  80 CALM      30.21R
STUTTGART      CLEAR     54  48  82 N6        30.21S
MONTICELLO     MOCLDY    55  51  86 CALM      30.20R

$$





USA.gov is the U.S. government's official web portal to all federal, state and local government web resources and services.